Weather History for Meadow Lake, CO

Change the Weather History Date:

Thursday, November 8, 2012

  Actual Average (KCOS) Record (KCOS)
Temperature  
Mean Temperature 50 °F 41 °F  
Max Temperature 65 °F 55 °F 78 °F (2006)
Min Temperature 36 °F 28 °F 12 °F (1888)
Degree Days  
Heating Degree Days 14 24  
Month to date heating degree days 178  
Since 1 July heating degree days 852  
Cooling Degree Days 0 0  
Month to date cooling degree days 0  
Year to date cooling degree days 455  
Moisture  
Dew Point 14 °F    
Average Humidity 25    
Maximum Humidity 63    
Minimum Humidity 12    
Precipitation  
Precipitation 0.00 in 0.02 in 0.53 in (1977)
Month to date precipitation 0.13  
Year to date precipitation 15.93  
Snow  
Snow 0.00 in 0.20 in 2.60 in (1975)
Month to date snowfall 1.1  
Since 1 July snowfall 4.2  
Since 1 September snowfall 4.2  
Snow Depth -    
Sea Level Pressure  
Sea Level Pressure 29.99 in    
Wind  
Wind Speed 11 mph (SW)    
Max Wind Speed 20 mph    
Max Gust Speed 26 mph    
Visibility 10 miles    
Events      
T = Trace of Precipitation, MM = Missing Value Source: NWS Daily Summary

Daily Weather History Graph

Daily Weather History Graph

Search for Another Location

Airport:

Trip Planner

Search our weather history database for the weather conditions in past years. The results will help you decide how hot, cold, wet, or windy it might be!

Date:

Astronomy

Nov. 08, 2012 Rise Set
Actual Time 6:33 AM MST 4:49 PM MST
Civil Twilight 6:05 AM MST 5:17 PM MST
Nautical Twilight 5:33 AM MST 5:49 PM MST
Astronomical Twilight 5:02 AM MST 6:21 PM MST
Moon 12:34 AM MST (11/8) 1:29 PM MST (11/8)
Length of Visible Light 11h 12m
Length of Day
10h 15m
Waning Crescent, 32% of the Moon is Illuminated
Nov 8
Waning Crescent
Nov 13
New
Nov 20
First Quarter
Nov 28
Full
Dec 6
Last Quarter

Hourly Weather History & Observations

Time (MST) Temp. Windchill Dew Point Humidity Pressure Visibility Wind Dir Wind Speed Gust Speed Precip Events Conditions
12:12 AM 47.1 °F - 11.8 °F 24% 30.04 in 10.0 mi NW 12.7 mph - N/A   Clear
12:32 AM 47.3 °F - 10.9 °F 23% 30.04 in 10.0 mi NNW 9.2 mph - N/A   Clear
12:52 AM 48.0 °F - 10.9 °F 22% 30.04 in 10.0 mi NW 15.0 mph 23.0 mph N/A   Clear
1:12 AM 53.2 °F - 9.9 °F 18% 30.03 in 10.0 mi WNW 18.4 mph 25.3 mph N/A   Clear
1:32 AM 50.0 °F - 10.4 °F 20% 30.02 in 10.0 mi WNW 13.8 mph 21.9 mph N/A   Clear
1:52 AM 50.0 °F - 10.2 °F 20% 30.02 in 10.0 mi NW 15.0 mph 21.9 mph N/A   Clear
2:11 AM 50.2 °F - 10.2 °F 20% 30.02 in 10.0 mi NW 16.1 mph 23.0 mph N/A   Clear
2:32 AM 47.8 °F - 10.4 °F 22% 30.02 in 10.0 mi NW 13.8 mph 19.6 mph N/A   Clear
2:52 AM 50.4 °F - 9.3 °F 19% 30.02 in 10.0 mi NNW 9.2 mph 20.7 mph N/A   Clear
3:12 AM 49.3 °F - 9.5 °F 20% 30.02 in 10.0 mi WNW 16.1 mph - N/A   Clear
3:32 AM 50.5 °F - 9.0 °F 19% 30.02 in 10.0 mi WNW 13.8 mph 19.6 mph N/A   Clear
3:51 AM 46.0 °F 41.4 °F 9.1 °F 22% 30.04 in 10.0 mi NW 9.2 mph - N/A   Clear
4:11 AM 44.8 °F 39.4 °F 9.3 °F 24% 30.04 in 10.0 mi NW 10.4 mph - N/A   Clear
4:31 AM 44.6 °F 40.2 °F 9.7 °F 24% 30.04 in 10.0 mi NW 8.1 mph - N/A   Clear
4:51 AM 46.2 °F 40.5 °F 10.2 °F 23% 30.03 in 10.0 mi NW 12.7 mph 18.4 mph N/A   Clear
5:11 AM 49.5 °F - 10.0 °F 20% 30.04 in 10.0 mi WNW 15.0 mph 21.9 mph N/A   Clear
5:51 AM 40.5 °F 34.1 °F 9.5 °F 28% 30.05 in 10.0 mi West 10.4 mph - N/A   Clear
6:11 AM 38.8 °F 32.1 °F 10.4 °F 31% 30.05 in 10.0 mi NW 10.4 mph - N/A   Clear
6:31 AM 44.1 °F 39.5 °F 10.4 °F 25% 30.05 in 10.0 mi NNW 8.1 mph - N/A   Clear
6:51 AM 42.8 °F 38.0 °F 11.1 °F 28% 30.05 in 10.0 mi NW 8.1 mph - N/A   Clear
7:11 AM 44.6 °F 41.4 °F 12.4 °F 27% 30.06 in 10.0 mi NNW 5.8 mph - N/A   Clear
7:31 AM 49.1 °F - 13.1 °F 24% 30.06 in 10.0 mi NNW 5.8 mph - N/A   Clear
7:51 AM 54.5 °F - 13.5 °F 20% 30.07 in 10.0 mi Calm Calm - N/A   Clear
8:11 AM 57.6 °F - 13.1 °F 17% 30.07 in 10.0 mi NNW 5.8 mph - N/A   Clear
8:31 AM 60.8 °F - 9.5 °F 13% 30.07 in 10.0 mi WSW 9.2 mph 16.1 mph N/A   Clear
8:51 AM 61.9 °F - 9.0 °F 12% 30.07 in 10.0 mi SSW 11.5 mph 16.1 mph N/A   Clear
9:11 AM 61.9 °F - 8.4 °F 12% 30.07 in 10.0 mi SW 8.1 mph - N/A   Clear
9:31 AM 62.2 °F - 8.4 °F 12% 30.07 in 10.0 mi South 6.9 mph 16.1 mph N/A   Clear
9:51 AM 63.0 °F - 9.5 °F 12% 30.06 in 10.0 mi South 8.1 mph - N/A   Clear
10:11 AM 63.1 °F - 10.0 °F 12% 30.06 in 10.0 mi SSE 10.4 mph 19.6 mph N/A   Clear
10:31 AM 64.6 °F - 10.4 °F 12% 30.04 in 10.0 mi SSE 9.2 mph 18.4 mph N/A   Clear
10:51 AM 64.6 °F - 11.8 °F 13% 30.04 in 10.0 mi SSE 13.8 mph 23.0 mph N/A   Clear
11:11 AM 65.3 °F - 10.9 °F 12% 30.03 in 10.0 mi SSE 13.8 mph 23.0 mph N/A   Clear
11:31 AM 63.5 °F - 9.0 °F 12% 30.01 in 10.0 mi South 19.6 mph 26.5 mph N/A   Clear
11:51 AM 63.5 °F - 9.9 °F 12% 30.00 in 10.0 mi SSE 16.1 mph 21.9 mph N/A   Clear
12:11 PM 63.9 °F - 10.8 °F 13% 30.00 in 10.0 mi SSE 13.8 mph 24.2 mph N/A   Clear
12:31 PM 63.0 °F - 10.9 °F 13% 29.98 in 10.0 mi South 18.4 mph 25.3 mph N/A   Clear
12:51 PM 63.1 °F - 11.1 °F 13% 29.97 in 10.0 mi SSE 16.1 mph 25.3 mph N/A   Clear
1:11 PM 65.1 °F - 11.8 °F 13% 29.96 in 10.0 mi SSE 18.4 mph 24.2 mph N/A   Clear
1:31 PM 64.9 °F - 12.7 °F 13% 29.96 in 10.0 mi SSE 17.3 mph 26.5 mph N/A   Clear
1:51 PM 63.9 °F - 12.0 °F 13% 29.95 in 10.0 mi SSE 15.0 mph 23.0 mph N/A   Clear
2:11 PM 62.2 °F - 10.4 °F 13% 29.95 in 10.0 mi SSE 13.8 mph 20.7 mph N/A   Clear
2:31 PM 64.0 °F - 10.9 °F 13% 29.94 in 10.0 mi SSE 16.1 mph 24.2 mph N/A   Clear
2:51 PM 60.3 °F - 10.4 °F 14% 29.95 in 10.0 mi SSE 16.1 mph 26.5 mph N/A   Clear
3:11 PM 58.1 °F - 13.3 °F 17% 29.94 in 10.0 mi SSE 11.5 mph - N/A   Clear
3:32 PM 57.4 °F - 14.0 °F 18% 29.95 in 10.0 mi SSE 11.5 mph 18.4 mph N/A   Clear
3:52 PM 55.9 °F - 13.6 °F 19% 29.94 in 10.0 mi South 8.1 mph - N/A   Clear
4:12 PM 55.4 °F - 14.7 °F 20% 29.94 in 10.0 mi SSE 8.1 mph - N/A   Clear
4:32 PM 56.1 °F - 14.9 °F 20% 29.94 in 10.0 mi South 11.5 mph - N/A   Scattered Clouds
4:52 PM 55.0 °F - 14.4 °F 20% 29.94 in 10.0 mi South 11.5 mph 18.4 mph N/A   Scattered Clouds
5:11 PM 51.4 °F - 14.0 °F 23% 29.94 in 10.0 mi South 9.2 mph - N/A   Scattered Clouds
5:32 PM 50.0 °F - 14.4 °F 24% 29.95 in 10.0 mi South 10.4 mph - N/A   Clear
5:52 PM 49.3 °F - 14.7 °F 25% 29.95 in 10.0 mi South 9.2 mph 16.1 mph N/A   Clear
6:12 PM 46.9 °F - 14.9 °F 28% 29.94 in 10.0 mi SSW 6.9 mph - N/A   Clear
6:32 PM 45.7 °F 41.0 °F 15.1 °F 29% 29.94 in 10.0 mi South 9.2 mph - N/A   Clear
6:52 PM 45.9 °F 41.2 °F 16.3 °F 31% 29.94 in 10.0 mi SSW 9.2 mph - N/A   Clear
7:12 PM 45.3 °F 40.6 °F 16.3 °F 31% 29.95 in 10.0 mi SSW 9.2 mph - N/A   Clear
7:32 PM 45.5 °F 40.8 °F 16.7 °F 32% 29.94 in 10.0 mi ESE 9.2 mph - N/A   Clear
7:52 PM 44.1 °F 40.8 °F 17.6 °F 35% 29.94 in 10.0 mi SE 5.8 mph - N/A   Clear
8:12 PM 42.8 °F 36.2 °F 20.7 °F 41% 29.94 in 10.0 mi ESE 12.7 mph 17.3 mph N/A   Clear
8:32 PM 40.8 °F 35.6 °F 22.1 °F 47% 29.93 in 10.0 mi SSE 8.1 mph - N/A   Clear
8:52 PM 40.6 °F 36.0 °F 23.0 °F 49% 29.93 in 10.0 mi South 6.9 mph - N/A   Clear
9:11 PM 41.2 °F 37.3 °F 23.5 °F 50% 29.93 in 10.0 mi South 5.8 mph - N/A   Clear
9:32 PM 41.5 °F - 23.9 °F 50% 29.93 in 10.0 mi Calm Calm - N/A   Clear
9:51 PM 40.3 °F - 23.5 °F 51% 29.93 in 10.0 mi Calm Calm - N/A   Clear
10:12 PM 37.8 °F - 22.1 °F 53% 29.92 in 10.0 mi Calm Calm - N/A   Clear
10:32 PM 36.9 °F 34.3 °F 23.5 °F 59% 29.91 in 10.0 mi NNW 3.5 mph - N/A   Clear
10:52 PM 39.0 °F 36.8 °F 24.8 °F 57% 29.91 in 10.0 mi North 3.5 mph - N/A   Clear
11:12 PM 38.8 °F 34.6 °F 25.2 °F 58% 29.90 in 10.0 mi NNW 5.8 mph - N/A   Clear
11:32 PM 36.0 °F 33.3 °F 24.6 °F 63% 29.89 in 10.0 mi NNW 3.5 mph - N/A   Clear
11:52 PM 38.1 °F 34.6 °F 25.3 °F 60% 29.88 in 10.0 mi North 4.6 mph - N/A   Clear